Essaouira, Morocco

10:40 AM WET on May 26, 2018 (GMT +0000)
Essaouira

Weather History for GMMI - March, 2014

Change the Weather History Date:

Sunday, March 30, 2014

  Actual Average Record
Temperature  
Mean Temperature 56 °F -  
Max Temperature 65 °F 66 °F - ()
Min Temperature 46 °F 56 °F - ()
Degree Days  
Heating Degree Days 10    
Growing Degree Days 6 (Base 50)    
Moisture  
Dew Point 50 °F    
Average Humidity 69    
Maximum Humidity 100    
Minimum Humidity 49    
Precipitation  
Precipitation 0.00 in 0.05 in - ()
Sea Level Pressure  
Sea Level Pressure 30.01 in    
Wind  
Wind Speed 7 mph ()    
Max Wind Speed 16 mph    
Max Gust Speed -    
Visibility 4.8 miles    
Events      
T = Trace of Precipitation, MM = Missing Value Source: Averaged Metar Reports

Daily Weather History Graph

Daily Weather History Graph

Search for Another Location

Airport or City:

Astronomy

Mar. 30, 2014 Rise Set
Actual Time 7:30 AM WEST 7:57 PM WEST
Civil Twilight 7:06 AM WEST 8:21 PM WEST
Nautical Twilight 6:37 AM WEST 8:50 PM WEST
Astronomical Twilight 6:08 AM WEST 9:19 PM WEST
Moon 7:07 AM WEST (3/30) 7:53 PM WEST (3/30)
Length of Visible Light 13h 15m
Length of Day
12h 26m
Waning Crescent, 0% of the Moon is Illuminated
Mar 30
Waning Crescent
Mar 30
New
Apr 7
First Quarter
Apr 15
Full
Apr 22
Last Quarter

Hourly Weather History & Observations

Time (WEST) Temp. Windchill Dew Point Humidity Pressure Visibility Wind Dir Wind Speed Gust Speed Precip Events Conditions
12:00 AM 57 °F - 52 °F 77% 30.01 in - SSE 4.5 mph - -  
4:00 AM 54 °F - 49 °F 76% 30.01 in - ESE 4.5 mph - -  
7:00 AM 54 °F - 49 °F 77% 29.98 in - East 11.2 mph - -  
7:00 AM 46.4 °F 42.9 °F 46.4 °F 100% 30.01 in 4.3 mi SE 6.9 mph - N/A   Partly Cloudy
8:00 AM 46.4 °F 44.3 °F 44.6 °F 93% 30.01 in 5.0 mi East 4.6 mph - N/A   Partly Cloudy
9:00 AM 53.6 °F - 51.8 °F 94% 30.01 in 5.0 mi ENE 4.6 mph - N/A   Partly Cloudy
10:00 AM 61 °F - 55 °F 75% 30.06 in 4 mi North 9.2 mph - -   Partly Cloudy
10:00 AM 59.0 °F - 50.0 °F 72% 30.04 in 5.0 mi ENE 4.6 mph - N/A   Partly Cloudy
11:00 AM 62.6 °F - 48.2 °F 59% 30.04 in 5.0 mi Variable 2.3 mph - N/A   Partly Cloudy
12:00 PM 66.2 °F - 46.4 °F 49% 30.04 in 5.0 mi Variable 2.3 mph - N/A   Partly Cloudy
1:00 PM 63 °F - 52 °F 59% 30.01 in - West 8.9 mph - -  
1:00 PM 66.2 °F - 46.4 °F 49% 30.01 in 5.0 mi Variable 2.3 mph - N/A   Partly Cloudy
2:00 PM 66.2 °F - 50.0 °F 56% 30.01 in 5.0 mi West 11.5 mph - N/A   Scattered Clouds
3:00 PM 68.0 °F - 50.0 °F 52% 30.01 in 5.0 mi West 16.1 mph - N/A   Scattered Clouds
4:00 PM 63 °F - 54 °F 66% 29.98 in - WSW 15.7 mph - -  
4:00 PM 66.2 °F - 50.0 °F 56% 30.01 in 5.0 mi West 13.8 mph - N/A   Partly Cloudy
5:00 PM 64.4 °F - 50.0 °F 59% 30.01 in 5.0 mi West 13.8 mph - N/A   Partly Cloudy
6:00 PM 64.4 °F - 50.0 °F 59% 30.01 in 5.0 mi West 13.8 mph - N/A   Partly Cloudy
7:00 PM 63 °F - 56 °F 72% 30.03 in 4 mi North 11.5 mph - -   Partly Cloudy
7:00 PM 60.8 °F - 51.8 °F 72% 30.01 in 5.0 mi West 16.1 mph - N/A   Scattered Clouds
10:00 PM 59 °F - 54 °F 77% 30.01 in - South 8.9 mph - -